STARLINK-33788, 63589

Orbit data source: Space-Track

STARLINK-33788, 63589 is a payload satellite owned by SpaceX/Seattle (US) in LEO that was launched on Mon, 14 Apr 2025 UTC via an FALCON 9 launch vehicle from the Air Force Eastern Test Range (AFETR). Payload-class satellites include a variety of spacecraft equipped with specific instruments for various scientific and technological missions. These include communications satellites like Starlink; space stations such as the ISS; scientific satellites like the Hubble; Earth observation satellites from companies like Planet Labs, Umbra, and HawkEye 360; GPS; miniature CubeSats for education and research; and military/defense satellites.

Loading next visibility...
Identifier
63589, 2025-076W
Orbit
LEO
Country
Flag of USUS
Related business
Manufacturer
SpaceX/Seattle
Mission
Operational Commercial Communications
Bus & Motor
STARLINK V2MO, Unknown motor
Mass
575 kg wet, ~530 kg dry
Launch date (UTC)
2025-04-14 (6 months ago)
Launch vehicle
FALCON 9
Launch site
Air Force Eastern Test Range (AFETR)
Object type
Payload
Rocket body
Debris
Shape & HBR
Box + 2 Pan, 17.7 m
Radar Cross Section
36.964 m², Large (>1 m²)

Expand to show TLE details & history
Last TLE update: 2 days ago

TLE from 2 days ago
0 STARLINK-33788
1 63589U 25076W   25292.68995726  .00041857  00000-0  15197-2 0  9993
2 63589  43.0053  38.2143 0001024 292.4254  67.6490 15.27628215 30266
Epoch: 2025-10-19T16:33Z
TLE epoch observation values (Epoch: 2025-10-19T16:33:32.307Z)
Latitude
0.00004°
Longitude
121.42673°
Altitude
482.414 km
Speed
7.626 km/s
True Right ascension
02h 32m 51s
True Declination
0° 00' 00"
Sunlit
Object was in full shadow at epoch
Visualization orbit readout
Latitude
Unknown
Longitude
Unknown
Altitude
Unknown
Speed
Unknown
Apparent Right ascension
Unknown
Apparent Declination
Unknown
Sunlit
N/A
Visualization observer readout
Local Sidereal Time
08:02:42
Azimuth
Unknown
Elevation
Unknown
Doppler factor
Unknown
Orbital elements
Apogee altitude
485.552 km
Perigee altitude
484.146 km
Semi-major axis
6,862.986 km
Eccentricity
0.0001
Inclination
43.0053°
RAAN
38.2143°
Arg. of periapsis
292.4254°
True anomaly
67.65985°
Mean anomaly
67.649°
Eccentric anomaly
67.65443°
Mean motion
3.81745 °/min
Orbital period
94.3 mins
BSTAR
0.0015197
Loading maneuver chart data...
Computing Atmospheric mass density...
Loading historical data...
Loading historical data...
Loading historical data...
Loading historical data...
Loading historical data...
Loading historical data...
Loading historical data...

Documentation

Showing up to 5 results
|